Regional Weather Roundup
Issued by NWS

Home | Current Version | Previous Version | Graphics & Text | Print | Product List | Glossary On
Versions: 1 2 3 4 5 6 7 8 9 10 11 12 13 14 15 16 17 18 19 20 21 22 23 24 25 26 27 28 29 30 31 32 33 34 35 36 37 38 39 40 41 42 43 44 45 46 47 48 49 50
000
ASUS43 KTOP 201459
RWRKS

WEATHER ROUNDUP FOR KANSAS
NATIONAL WEATHER SERVICE GOODLAND KS
1000 AM CDT WED AUG 20 2014

NOTE:  "FAIR" INDICATES FEW OR NO CLOUDS BELOW 12,000 FEET WITH NO
SIGNIFICANT WEATHER AND/OR OBSTRUCTIONS TO VISIBILITY.

KSZ001>006-013>018-027>032-041>047-201600-
NORTHWEST KANSAS

CITY           SKY/WX    TMP DP  RH WIND       PRES   REMARKS
GOODLAND       MOSUNNY   78  60  53 SW10      29.83R
HAYS           SUNNY     82  64  54 S15G23    29.81S
HILL CITY      SUNNY     82  65  56 S12       29.79F
RUSSELL        SUNNY     84  66  54 S15       29.81R
$$

KSZ061>065-074>080-084>089-201600-
SOUTHWEST KANSAS

CITY           SKY/WX    TMP DP  RH WIND       PRES   REMARKS
DODGE CITY     SUNNY     81  65  58 S14G23    29.85S
ELKHART          N/A     78  61  55 S12         N/A
GARDEN CITY    SUNNY     79  65  62 SW18G24   29.83F
GREAT BEND     SUNNY     82  66  57 S18       29.82F
LIBERAL        SUNNY     81  64  57 S21G26    29.87S
$$

KSZ066>073-081>083-090>101-201600-
SOUTHEAST KANSAS

CITY           SKY/WX    TMP DP  RH WIND       PRES   REMARKS
CHANUTE        SUNNY     86  68  54 S15       29.92R
COFFEYVILLE    SUNNY     83  71  67 S17       29.92R
HUTCHINSON     SUNNY     83  66  56 S16       29.86R
NEWTON         SUNNY     82  64  54 SW18G25   29.90F
PARSONS        MOSUNNY   83  70  64 S12       29.93R
WICHITA INTL   MOSUNNY   83  66  56 S17       29.86F
WICHITA JABRA  SUNNY     82  66  58 S18       29.88R
WINFIELD       SUNNY     83  69  62 S14       29.90S
$$

KSZ007>012-019>026-033>040-048>060-102>105-201600-
NORTHEAST KANSAS

CITY           SKY/WX    TMP DP  RH WIND       PRES   REMARKS
CONCORDIA      MOSUNNY   80  68  66 S15       29.82S
EMPORIA        SUNNY     82  69  64 S14       29.89R
LAWRENCE       SUNNY     87  71  58 S7        29.88S
MANHATTAN      SUNNY     85  69  58 SW12      29.84S
OLATHE IND     SUNNY     83  70  64 S15       29.91S
OLATHE EXE     SUNNY     81  71  71 SW10      29.90S
SALINA         SUNNY     83  68  60 S14       29.83F
TOPEKA BILLARD SUNNY     84  71  65 S10       29.87S
TOPEKA FORBES  SUNNY     84  69  60 SW13      29.88S
$$


USA.gov is the U.S. government's official web portal to all federal, state and local government web resources and services.